Weather History for La Porte, IN

Change the Weather History Date:

Sunday, February 2, 2014

  Actual Average (KVPZ) Record (KVPZ)
Temperature  
Mean Temperature 15 °F 24 °F  
Max Temperature 27 °F 32 °F 43 °F (1998)
Min Temperature 3 °F 17 °F 0 °F (2001)
Degree Days  
Heating Degree Days 50 41  
Month to date heating degree days 82  
Since 1 July heating degree days 3767  
Cooling Degree Days 0 0  
Month to date cooling degree days 0  
Year to date cooling degree days 0  
Moisture  
Dew Point 14 °F    
Average Humidity 81    
Maximum Humidity 90    
Minimum Humidity 73    
Precipitation  
Precipitation 0.00 in 0.04 in 0.10 in (2004)
Month to date precipitation 0.08  
Year to date precipitation 1.83  
Sea Level Pressure  
Sea Level Pressure 30.20 in    
Wind  
Wind Speed 8 mph (NW)    
Max Wind Speed 14 mph    
Max Gust Speed 20 mph    
Visibility 10 miles    
Events      
T = Trace of Precipitation, MM = Missing Value Source: NWS Daily Summary

Daily Weather History Graph

Daily Weather History Graph

Search for Another Location

Airport:

Trip Planner

Search our weather history database for the weather conditions in past years. The results will help you decide how hot, cold, wet, or windy it might be!

Date:

Astronomy

Feb. 02, 2014 Rise Set
Actual Time 6:57 AM CST 5:04 PM CST
Civil Twilight 6:28 AM CST 5:33 PM CST
Nautical Twilight 5:55 AM CST 6:06 PM CST
Astronomical Twilight 5:22 AM CST 6:39 PM CST
Moon 8:20 AM CST (2/2) 8:51 PM CST (2/2)
Length of Visible Light 11h 04m
Length of Day
10h 06m
Waxing Crescent, 11% of the Moon is Illuminated
Feb 2
Waxing Crescent
Feb 6
First Quarter
Feb 14
Full
Feb 22
Last Quarter
Mar 1
New

Hourly Weather History & Observations

Time (CST) Temp. Windchill Dew Point Humidity Pressure Visibility Wind Dir Wind Speed Gust Speed Precip Events Conditions
12:15 AM 27.3 °F 19.1 °F 23.5 °F 86% 30.05 in 10.0 mi NNW 8.1 mph - N/A   Overcast
12:35 AM 27.0 °F 18.0 °F 23.4 °F 86% 30.06 in 10.0 mi NW 9.2 mph - N/A   Overcast
12:55 AM 26.6 °F 18.2 °F 23.0 °F 86% 30.06 in 10.0 mi NNW 8.1 mph - N/A   Overcast
1:15 AM 26.4 °F 16.0 °F 23.0 °F 87% 30.07 in 10.0 mi NW 11.5 mph - N/A   Overcast
1:35 AM 25.7 °F 16.4 °F 22.5 °F 88% 30.07 in 10.0 mi NNW 9.2 mph - N/A   Mostly Cloudy
1:55 AM 25.5 °F 16.9 °F 21.9 °F 86% 30.08 in 10.0 mi NW 8.1 mph - N/A   Scattered Clouds
2:15 AM 25.3 °F 16.0 °F 21.4 °F 85% 30.08 in 10.0 mi NW 9.2 mph - N/A   Scattered Clouds
2:35 AM 25.2 °F 14.4 °F 21.0 °F 84% 30.08 in 10.0 mi NNW 11.5 mph - N/A   Overcast
2:55 AM 24.6 °F 14.4 °F 20.8 °F 86% 30.08 in 10.0 mi NW 10.4 mph - N/A   Overcast
3:15 AM 24.3 °F 14.6 °F 20.3 °F 85% 30.08 in 10.0 mi NNW 9.2 mph - N/A   Overcast
3:35 AM 24.1 °F 15.2 °F 20.3 °F 85% 30.08 in 10.0 mi NW 8.1 mph - N/A   Overcast
3:55 AM 23.9 °F 15.0 °F 20.1 °F 85% 30.08 in 10.0 mi NW 8.1 mph - N/A   Overcast
4:15 AM 23.9 °F 14.2 °F 19.9 °F 85% 30.09 in 10.0 mi NW 9.2 mph - N/A   Overcast
4:35 AM 23.7 °F 14.7 °F 19.4 °F 84% 30.10 in 10.0 mi NW 8.1 mph - N/A   Overcast
4:55 AM 23.4 °F 15.2 °F 19.2 °F 84% 30.10 in 10.0 mi NW 6.9 mph - N/A   Scattered Clouds
5:15 AM 23.4 °F 13.5 °F 19.4 °F 85% 30.10 in 10.0 mi NW 9.2 mph - N/A   Mostly Cloudy
5:35 AM 23.0 °F 13.1 °F 19.2 °F 85% 30.10 in 10.0 mi NW 9.2 mph - N/A   Mostly Cloudy
5:55 AM 23.0 °F 13.9 °F 19.0 °F 85% 30.12 in 10.0 mi NW 8.1 mph - N/A   Overcast
6:15 AM 22.8 °F 12.2 °F 18.5 °F 83% 30.13 in 10.0 mi NW 10.4 mph - N/A   Overcast
6:35 AM 22.5 °F 11.7 °F 18.3 °F 84% 30.13 in 10.0 mi NW 10.4 mph - N/A   Overcast
6:55 AM 21.7 °F 11.5 °F 17.1 °F 82% 30.14 in 10.0 mi NW 9.2 mph - N/A   Mostly Cloudy
7:15 AM 21.0 °F 12.4 °F 16.2 °F 81% 30.15 in 10.0 mi NW 6.9 mph - N/A   Mostly Cloudy
7:35 AM 20.7 °F 10.2 °F 15.8 °F 81% 30.16 in 10.0 mi NW 9.2 mph - N/A   Scattered Clouds
7:55 AM 20.7 °F 10.2 °F 15.8 °F 81% 30.16 in 10.0 mi NW 9.2 mph - N/A   Scattered Clouds
8:15 AM 21.0 °F 11.4 °F 16.2 °F 81% 30.17 in 10.0 mi NW 8.1 mph - N/A   Clear
8:35 AM 21.2 °F 10.9 °F 16.3 °F 82% 30.19 in 10.0 mi NW 9.2 mph - N/A   Scattered Clouds
8:55 AM 21.4 °F 9.7 °F 15.6 °F 78% 30.19 in 10.0 mi NW 11.5 mph 17.3 mph N/A   Scattered Clouds
9:15 AM 21.2 °F 10.9 °F 15.4 °F 78% 30.19 in 10.0 mi NW 9.2 mph 17.3 mph N/A   Scattered Clouds
9:35 AM 21.2 °F 10.9 °F 14.9 °F 77% 30.21 in 10.0 mi NW 9.2 mph - N/A   Scattered Clouds
9:55 AM 20.8 °F 9.7 °F 14.5 °F 77% 30.23 in 10.0 mi NW 10.4 mph - N/A   Scattered Clouds
10:15 AM 20.7 °F 8.8 °F 14.0 °F 75% 30.24 in 10.0 mi NNW 11.5 mph 16.1 mph N/A   Mostly Cloudy
10:35 AM 20.5 °F 10.0 °F 13.8 °F 75% 30.25 in 10.0 mi NW 9.2 mph - N/A   Mostly Cloudy
10:55 AM 20.7 °F 9.5 °F 13.8 °F 75% 30.25 in 10.0 mi NNW 10.4 mph - N/A   Mostly Cloudy
11:15 AM 20.8 °F 11.2 °F 13.5 °F 73% 30.25 in 10.0 mi NW 8.1 mph - N/A   Mostly Cloudy
11:35 AM 20.5 °F 10.8 °F 13.1 °F 73% 30.23 in 10.0 mi NNW 8.1 mph - N/A   Scattered Clouds
11:55 AM 20.3 °F 9.0 °F 13.1 °F 74% 30.21 in 10.0 mi NNW 10.4 mph - N/A   Scattered Clouds
12:15 PM 20.3 °F 7.7 °F 13.5 °F 75% 30.21 in 10.0 mi NW 12.7 mph 19.6 mph N/A   Mostly Cloudy
12:35 PM 19.9 °F 6.7 °F 13.1 °F 75% 30.21 in 10.0 mi NNW 13.8 mph - N/A   Mostly Cloudy
12:55 PM 19.0 °F 6.1 °F 12.4 °F 75% 30.21 in 10.0 mi NW 12.7 mph 17.3 mph N/A   Mostly Cloudy
1:15 PM 18.5 °F 6.8 °F 11.8 °F 75% 30.20 in 10.0 mi NNW 10.4 mph - N/A   Mostly Cloudy
1:35 PM 18.5 °F 6.8 °F 11.7 °F 75% 30.23 in 10.0 mi NNW 10.4 mph - N/A   Mostly Cloudy
1:55 PM 18.3 °F 5.9 °F 11.1 °F 73% 30.24 in 10.0 mi NNW 11.5 mph - N/A   Scattered Clouds
2:15 PM 18.5 °F 6.8 °F 11.3 °F 73% 30.23 in 10.0 mi NNW 10.4 mph - N/A   Scattered Clouds
2:35 PM 18.5 °F 5.5 °F 11.7 °F 75% 30.24 in 10.0 mi NW 12.7 mph 16.1 mph N/A   Mostly Cloudy
2:55 PM 18.5 °F 6.8 °F 11.3 °F 73% 30.23 in 10.0 mi NNW 10.4 mph - N/A   Mostly Cloudy
3:15 PM 18.5 °F 9.3 °F 11.3 °F 73% 30.26 in 10.0 mi NNW 6.9 mph 10.4 mph N/A   Scattered Clouds
3:35 PM 18.5 °F 7.5 °F 11.8 °F 75% 30.26 in 10.0 mi NW 9.2 mph - N/A   Mostly Cloudy
3:55 PM 18.5 °F 8.4 °F 12.0 °F 76% 30.26 in 10.0 mi NNW 8.1 mph - N/A   Mostly Cloudy
4:15 PM 18.5 °F 7.5 °F 11.5 °F 74% 30.26 in 10.0 mi NNW 9.2 mph - N/A   Mostly Cloudy
4:35 PM 18.5 °F 7.5 °F 11.3 °F 73% 30.26 in 10.0 mi NNW 9.2 mph - N/A   Mostly Cloudy
4:55 PM 18.1 °F 10.0 °F 11.8 °F 76% 30.26 in 10.0 mi NW 5.8 mph - N/A   Overcast
5:15 PM 18.1 °F 10.0 °F 12.2 °F 78% 30.26 in 10.0 mi NW 5.8 mph - N/A   Overcast
5:35 PM 18.0 °F 9.8 °F 12.0 °F 78% 30.26 in 10.0 mi NW 5.8 mph - N/A   Overcast
5:55 PM 18.0 °F 12.7 °F 12.2 °F 78% 30.28 in 10.0 mi NW 3.5 mph - N/A   Overcast
6:15 PM 18.0 °F - 12.2 °F 78% 30.27 in 10.0 mi Calm Calm - N/A   Overcast
6:35 PM 17.6 °F - 12.2 °F 79% 30.26 in 10.0 mi Calm Calm - N/A   Overcast
6:55 PM 17.6 °F - 12.2 °F 79% 30.27 in 10.0 mi Calm Calm - N/A   Overcast
7:15 PM 17.6 °F - 12.0 °F 79% 30.27 in 10.0 mi Calm Calm - N/A   Overcast
7:35 PM 17.2 °F 11.9 °F 11.8 °F 79% 30.26 in 10.0 mi North 3.5 mph - N/A   Overcast
7:55 PM 17.1 °F - 12.2 °F 81% 30.26 in 10.0 mi Calm Calm - N/A   Overcast
8:15 PM 16.9 °F 9.8 °F 12.0 °F 81% 30.25 in 10.0 mi NNW 4.6 mph - N/A   Overcast
8:35 PM 14.9 °F - 10.6 °F 83% 30.26 in 10.0 mi Calm Calm - N/A   Overcast
8:55 PM 15.4 °F - 10.8 °F 82% 30.28 in 10.0 mi Calm Calm - N/A   Overcast
9:15 PM 14.7 °F 9.0 °F 11.1 °F 86% 30.27 in 10.0 mi NW 3.5 mph - N/A   Overcast
9:35 PM 14.0 °F 8.2 °F 10.2 °F 85% 30.26 in 10.0 mi NNW 3.5 mph - N/A   Overcast
9:55 PM 12.9 °F - 8.8 °F 84% 30.26 in 10.0 mi Calm Calm - N/A   Overcast
10:15 PM 12.2 °F - 8.8 °F 86% 30.26 in 10.0 mi Calm Calm - N/A   Overcast
10:35 PM 7.5 °F - 4.1 °F 86% 30.29 in 10.0 mi Calm Calm - N/A   Overcast
10:55 PM 9.3 °F - 7.0 °F 90% 30.28 in 10.0 mi Calm Calm - N/A   Overcast
11:15 PM 4.5 °F - 1.8 °F 89% 30.27 in 10.0 mi Calm Calm - N/A   Mostly Cloudy
11:35 PM 3.0 °F - -0.2 °F 86% 30.26 in 5.0 mi Calm Calm - N/A   Mostly Cloudy
11:55 PM 5.0 °F - 1.9 °F 87% 30.27 in 7.0 mi Calm Calm - N/A   Mostly Cloudy